User: anonymous   Login
Location: Unspecified
(0.0000°N, 0.0000°E)
Time: 10:58:59
(UTC+00:00)
Language:

NNS O-23 - Orbit

View from above orbital plane
View from above orbital plane
View from above satellite
View from above satellite

Ground track
Ground track

The orbit data is extracted from the following two-line orbital elements,

1 19070U 88033A   18267.53478160 +.00000051 +00000-0 +90848-4 0  9996
2 19070 090.3636 289.9386 0189030 310.0524 165.7673 13.27434156472764
Epoch (UTC): 24 September 2018 12:50:05
Eccentricity: 0.0189030
inclination: 90.3636°
perigee height: 1014 km
apogee height: 1299 km
right ascension of ascending node: 289.9386°
argument of perigee: 310.0524°
revolutions per day: 13.27434156
mean anomaly at epoch: 165.7673°
orbit number at epoch: 47276

The dashed part of the orbit path shows where the satellite is in the earth's shadow,  

DLR